Date String (YYYY-MM-DD hh:mm:ss) UTC,Instrument flags,absolute air pressure of the measurement (hPa),sample flow rate (lpm),inlet stack bypass flow (lpm),air temperature of the measurement (°C),ambient temperature measured by the external sensor (°C),aerosol sample conditioner tube jacket temperature (°C),OPC LED temperature (°C),internal box temperature (°C),relative humidity of the measurement (%),span deviation,mass concentration of particles derived from Lorenz-Mie calculation of OPC scattering (μg/m³),mass concentration of particles derived from Lorenz-Mie calculation of OPC scattering (μg/m³),mass concentration of particles derived from Lorenz-Mie calculation of OPC scattering (μg/m³)
DateTimeUTC,F1_M11,P_M11,Q1_M11,Q2_M11,T1_M11,T2_M11,T3_M11,T4_M11,T5_M11,U1_M11,ZSPAN_M11,X0_M11,X2_M11,X1_M11
2024-04-26 23:00:00,SystemResetWarning,0816.9,5.01,000.00,025.3,022.3,000.0,034.2,026.0,023.7,0000.0,0007.13,0002.68,0001.94
2024-04-26 23:01:00,SystemResetWarning,0816.9,4.99,000.00,025.1,022.4,000.0,034.1,024.4,023.6,0000.0,0007.40,0002.75,0001.94
2024-04-26 23:02:00,SystemResetWarning,0816.9,5.00,000.00,025.1,023.0,000.0,033.9,026.5,023.5,0000.0,0007.52,0002.78,0001.95
2024-04-26 23:03:00,SystemResetWarning,0816.9,5.01,000.00,025.2,023.3,000.0,033.9,026.7,023.6,0000.0,0008.42,0002.77,0001.95
2024-04-26 23:04:00,SystemResetWarning,0816.9,5.00,000.00,025.2,023.6,000.0,033.8,026.9,023.6,0000.0,0007.83,0002.79,0001.96
2024-04-26 23:05:00,SystemResetWarning,0816.9,5.00,000.00,025.3,023.9,000.0,033.8,027.0,023.6,0000.0,0007.78,0002.81,0001.96
2024-04-26 23:06:00,SystemResetWarning,0817.1,5.00,000.00,025.3,024.1,000.0,033.8,027.1,023.9,0000.0,0007.26,0002.81,0001.95
2024-04-26 23:07:00,SystemResetWarning,0817.1,4.98,000.00,025.4,024.4,000.0,033.8,027.2,023.7,0000.0,0007.17,0002.73,0001.94
2024-04-26 23:08:00,SystemResetWarning,0817.1,5.00,000.00,025.4,024.5,000.0,033.8,027.3,023.7,0000.0,0007.16,0002.68,0001.92
2024-04-26 23:09:00,SystemResetWarning,0817.1,5.02,000.00,025.5,024.7,000.0,033.8,027.4,023.9,0000.0,0007.37,0002.69,0001.91
2024-04-26 23:10:00,SystemResetWarning,0817.1,4.99,000.00,025.5,024.8,000.0,033.8,027.5,023.7,0000.0,0007.52,0002.74,0001.91
2024-04-26 23:11:00,SystemResetWarning,0817.1,4.99,000.00,025.6,024.9,000.0,033.9,027.5,023.2,0000.0,0007.37,0002.74,0001.90
2024-04-26 23:12:00,SystemResetWarning,0817.1,4.99,000.00,025.7,025.0,000.0,033.9,027.6,022.8,0000.0,0007.03,0002.71,0001.90
2024-04-26 23:13:00,SystemResetWarning,0817.1,5.01,000.00,025.7,025.1,000.0,033.9,027.7,023.3,0000.0,0007.54,0002.65,0001.89
2024-04-26 23:14:00,SystemResetWarning,0817.1,5.01,000.00,025.8,025.2,000.0,034.0,027.7,023.9,0000.0,0006.87,0002.71,0001.88
2024-04-26 23:15:00,SystemResetWarning,0817.1,5.00,000.00,025.8,025.3,000.0,034.0,027.7,023.6,0000.0,0006.76,0002.69,0001.86
2024-04-26 23:16:00,SystemResetWarning,0817.1,4.98,000.00,025.7,023.7,000.0,034.1,026.8,023.8,0000.0,0007.34,0002.72,0001.85
2024-04-26 23:17:00,SystemResetWarning,0817.1,5.03,000.00,025.3,022.3,000.0,034.1,026.0,024.0,0000.0,0007.67,0002.75,0001.86
2024-04-26 23:18:00,SystemResetWarning,0817.1,4.99,000.00,025.0,022.4,000.0,034.0,026.0,023.7,0000.0,0007.88,0002.81,0001.85
2024-04-26 23:19:00,SystemResetWarning,0817.1,4.99,000.00,025.0,022.7,000.0,033.8,026.2,023.6,0000.0,0007.89,0002.89,0001.85
2024-04-26 23:20:00,SystemResetWarning,0817.1,5.02,000.00,025.0,023.1,000.0,033.7,026.6,024.0,0000.0,0007.78,0002.86,0001.84
2024-04-26 23:21:00,SystemResetWarning,0817.1,5.01,000.00,025.1,023.4,000.0,033.7,026.7,023.7,0000.0,0007.80,0002.82,0001.83
2024-04-26 23:22:00,SystemResetWarning,0817.1,5.00,000.00,025.1,023.7,000.0,033.7,026.9,023.3,0000.0,0007.91,0002.84,0001.85
2024-04-26 23:23:00,SystemResetWarning,0817.2,5.00,000.00,025.2,024.0,000.0,033.7,027.0,023.2,0000.0,0008.58,0002.83,0001.83
2024-04-26 23:24:00,SystemResetWarning,0817.1,5.00,000.00,025.2,024.2,000.0,033.7,027.1,023.1,0000.0,0008.54,0002.83,0001.84
2024-04-26 23:25:00,SystemResetWarning,0817.2,5.01,000.00,025.3,024.4,000.0,033.7,027.2,023.4,0000.0,0008.08,0002.79,0001.85
2024-04-26 23:26:00,SystemResetWarning,0817.2,4.99,000.00,025.4,024.6,000.0,033.7,027.3,023.8,0000.0,0008.24,0002.83,0001.86
2024-04-26 23:27:00,SystemResetWarning,0817.2,4.99,000.00,025.4,024.7,000.0,033.7,027.4,023.5,0000.0,0008.52,0002.80,0001.86
2024-04-26 23:28:00,SystemResetWarning,0817.1,5.00,000.00,025.5,024.8,000.0,033.7,027.5,023.1,0000.0,0008.46,0002.81,0001.86
2024-04-26 23:29:00,SystemResetWarning,0817.1,5.00,000.00,025.6,025.0,000.0,033.8,027.5,023.1,0000.0,0008.12,0002.79,0001.87
2024-04-26 23:30:00,SystemResetWarning,0817.1,5.01,000.00,025.6,025.1,000.0,033.8,027.6,023.0,0000.0,0008.48,0002.78,0001.89
2024-04-26 23:31:00,SystemResetWarning,0817.1,5.00,000.00,025.7,025.2,000.0,033.8,027.7,022.6,0000.0,0008.71,0002.85,0001.91
2024-04-26 23:32:00,SystemResetWarning,0817.2,5.00,000.00,025.7,025.3,000.0,033.9,027.7,022.0,0000.0,0008.78,0002.91,0001.93
2024-04-26 23:33:00,SystemResetWarning,0817.2,5.00,000.00,025.8,025.3,000.0,033.9,027.8,021.5,0000.0,0008.52,0002.88,0001.92
2024-04-26 23:34:00,SystemResetWarning,0817.2,4.99,000.00,025.8,025.1,000.0,034.0,027.6,022.2,0000.0,0008.25,0002.86,0001.92
2024-04-26 23:35:00,SystemResetWarning,0817.1,4.99,000.00,025.6,023.1,000.0,034.0,026.5,023.0,0000.0,0007.93,0002.80,0001.92
2024-04-26 23:36:00,SystemResetWarning,0817.1,5.02,000.00,025.2,022.3,000.0,034.0,025.9,023.8,0000.0,0007.64,0002.79,0001.91
2024-04-26 23:37:00,SystemResetWarning,0817.1,5.00,000.00,025.0,022.6,000.0,033.9,026.0,024.1,0000.0,0007.60,0002.78,0001.92
2024-04-26 23:38:00,SystemResetWarning,0817.2,4.99,000.00,025.0,022.9,000.0,033.8,026.4,024.1,0000.0,0008.65,0002.80,0001.95
2024-04-26 23:39:00,SystemResetWarning,0817.3,5.00,000.00,025.1,023.3,000.0,033.7,026.6,024.0,0000.0,0008.78,0002.79,0001.96
2024-04-26 23:40:00,SystemResetWarning,0817.3,5.01,000.00,025.1,023.6,000.0,033.7,026.8,023.0,0000.0,0008.69,0002.77,0001.95
2024-04-26 23:41:00,SystemResetWarning,0817.4,5.00,000.00,025.1,023.9,000.0,033.7,026.9,023.1,0000.0,0008.32,0002.78,0001.94
2024-04-26 23:42:00,SystemResetWarning,0817.4,5.00,000.00,025.2,024.1,000.0,033.7,027.1,023.3,0000.0,0008.79,0002.66,0001.94
2024-04-26 23:43:00,SystemResetWarning,0817.4,4.99,000.00,025.3,024.3,000.0,033.7,027.2,023.0,0000.0,0008.83,0002.63,0001.94
2024-04-26 23:44:00,SystemResetWarning,0817.4,4.99,000.00,025.3,024.5,000.0,033.7,027.2,022.8,0000.0,0008.80,0002.64,0001.94
2024-04-26 23:45:00,SystemResetWarning,0817.4,4.99,000.00,025.4,024.6,000.0,033.7,027.3,022.8,0000.0,0009.03,0002.67,0001.95
2024-04-26 23:46:00,SystemResetWarning,0817.4,5.00,000.00,025.5,024.8,000.0,033.7,027.4,022.9,0000.0,0008.88,0002.73,0001.97
2024-04-26 23:47:00,SystemResetWarning,0817.5,5.00,000.00,025.5,024.9,000.0,033.7,027.5,022.9,0000.0,0008.97,0002.80,0002.00
2024-04-26 23:48:00,SystemResetWarning,0817.5,5.01,000.00,025.6,025.0,000.0,033.8,027.5,022.8,0000.0,0009.14,0002.85,0002.02
2024-04-26 23:49:00,SystemResetWarning,0817.5,5.00,000.00,025.6,025.1,000.0,033.8,027.6,022.5,0000.0,0007.65,0002.78,0002.02
2024-04-26 23:50:00,SystemResetWarning,0817.5,5.01,000.00,025.7,025.2,000.0,033.8,027.7,022.1,0000.0,0007.28,0002.82,0002.02
2024-04-26 23:51:00,SystemResetWarning,0817.6,5.00,000.00,025.8,025.3,000.0,033.9,027.7,022.0,0000.0,0007.35,0002.87,0002.05
2024-04-26 23:52:00,SystemResetWarning,0817.6,5.00,000.00,025.8,025.3,000.0,033.9,027.8,022.2,0000.0,0007.32,0002.85,0002.06
2024-04-26 23:53:00,SystemResetWarning,0817.6,5.00,000.00,025.9,025.4,000.0,034.0,027.8,022.1,0000.0,0006.10,0002.89,0002.07
2024-04-26 23:54:00,SystemResetWarning,0817.6,5.00,000.00,025.9,025.4,000.0,034.0,027.8,022.4,0000.0,0006.43,0002.92,0002.08
2024-04-26 23:55:00,SystemResetWarning,0817.6,4.98,000.00,025.7,023.7,000.0,034.1,026.8,022.5,0000.0,0006.90,0002.92,0002.09
2024-04-26 23:56:00,SystemResetWarning,0817.5,5.02,000.00,025.3,022.3,000.0,034.1,026.1,023.1,0000.0,0006.57,0002.93,0002.10
2024-04-26 23:57:00,SystemResetWarning,0817.6,4.99,000.00,025.1,022.5,000.0,034.0,026.0,023.8,0000.0,0006.13,0002.92,0002.10
2024-04-26 23:58:00,SystemResetWarning,0817.6,5.00,000.00,025.1,022.8,000.0,033.9,026.3,023.9,0000.0,0006.49,0002.82,0002.06
2024-04-26 23:59:00,SystemResetWarning,0817.6,5.00,000.00,025.1,023.2,000.0,033.8,026.6,023.6,0000.0,0006.20,0002.77,0002.05
